Tracking 18823 objects as of 20-October-2017
HD Live streaming from Space Station
objects crossing your sky now

AZUR (GRS A)

Track AZUR (GRS A) now!
10-day predictions
AZUR (GRS A) is classified as:


NORAD ID: 4221
Int'l Code: 1969-097A
Perigee: 363.4 km
Apogee: 1,278.1 km
Inclination: 102.7 °
Period: 101.2 minutes
Semi major axis: 7191 km
RCS: 0.3339 m2 (medium)
Launch date: November 8, 1969
Source: Germany (GER)
Launch site: AIR FORCE WESTERN TEST RANGE (AFWTR)
aabbcc
Your satellite tracking list
Your tracking list is empty





NASA's NSSDC Master Catalog

Two Line Element Set (TLE):
1  4221U 69097A   17292.57869549 +.00002445 +00000-0 +12065-3 0  9996
2  4221 102.6813 213.0791 0635922 176.9428 183.5922 14.23481144266892
Source of the keplerian elements: AFSPC